Volver al catálogo

WESTFORD NEEDLES

ActivoPO
NORAD 5702·DEBRIS·🇺🇸 United States

Lanzado May 9, 1963 desde Vandenberg Space Force Base

Loading…

Próximos Pases (próximas 24 horas)

TLE

ActualizadoSource: Space-Track

Época: Sep 14, 2026, 03:16 UTC

1 05702U 63014CU  26257.13646659  .00000276  00000-0  15976-1 0  9994
2 05702  86.1510  49.8156 1943857  57.3161 320.0496  8.76178932434725

Sigue WESTFORD NEEDLES en tiempo real con AllMySat

Download on the App Store